Showing default

QIANFAN-97, 66039

Orbit data source: Space-Track

QIANFAN-97, 66039 is a Chinese payload satellite in LEO that was launched on Fri, 17 Oct 2025 UTC via a CHANG ZHENG 6A launch vehicle from the Taiyaun Space Center, China (TSC). Payload-class satellites include a variety of spacecraft equipped with specific instruments for various scientific and technological missions. These include communications satellites like Starlink; space stations such as the ISS; scientific satellites like the Hubble; Earth observation satellites from companies like Planet Labs, Umbra, and HawkEye 360; GPS; miniature CubeSats for education and research; and military/defense satellites.

Loading next visibility...
Identifier
66039, 2025-233G
Orbit
LEO
Country
Flag of CNCN / PRC
Related business
Manufacturer
SECM
Mission
Operational Commercial Communications
Bus & Motor
QIANFAN, Unknown motor
Mass
267 kg wet, ~267 kg dry
Launch date (UTC)
2025-10-17 (7 months ago)
Launch vehicle
CHANG ZHENG 6A
Launch site
Taiyaun Space Center, China (TSC)
Object type
Payload
Rocket body
Debris
Shape & HBR
Box + 1 Pan, 14.5 m
Radar Cross Section
13.200 m²

Expand to show TLE details & history
Last TLE update: 9 hours ago

TLE from 9 hours ago
0 QIANFAN-97
1 66039U 25233G   26130.15961169  .00000127  00000-0  17752-3 0  9994
2 66039  89.0025  47.0246 0002359  70.5853 289.5553 13.51015796 28050
Epoch: 2026-05-10T03:49Z
TLE epoch observation values (Epoch: 2026-05-10T03:49:50.450Z)
Latitude
0.00001°
Longitude
121.5977°
Altitude
1,070.889 km
Speed
7.317 km/s
True Right ascension
03h 08m 05s
True Declination
0° 00' 00"
Sunlit
Object was in daylight at epoch
Visualization orbit readout
Latitude
Unknown
Longitude
Unknown
Altitude
Unknown
Speed
Unknown
Apparent Right ascension
Unknown
Apparent Declination
Unknown
Sunlit
N/A
Visualization observer readout
Local Sidereal Time
21:18:47
Azimuth
Unknown
Elevation
Unknown
Doppler factor
Unknown
Orbital elements
Apogee altitude
1,067.331 km
Perigee altitude
1,063.819 km
Semi-major axis
7,443.712 km
Eccentricity
0.00024
Inclination
89.0025°
RAAN
47.0246°
Arg. of periapsis
70.5853°
True anomaly
289.52982°
Mean anomaly
289.5553°
Eccentric anomaly
289.54256°
Mean motion
3.37955 °/min
Orbital period
106.52 mins
BSTAR
0.00017752
Loading maneuver chart data...
Computing Atmospheric mass density...
Loading historical data...
Loading historical data...
Loading historical data...
Loading historical data...
Loading historical data...
Loading historical data...
Loading historical data...

Documentation

Showing up to 5 results
|